EHI
0 0 0 0 0 0 0 0 0 0 0 0 0 0 0 0 0 0 0 0 0 0 0 0 0 0 0 0 0 0 0 0 0 0 0 0 0 0 0 0 0 0 0
0 0 0 0 0 0 0 0 0 0 0 0 0 0 0 0 0 0 0 0 0 0 0 0 0 0 0 0 0 0 0 0 0 0 0 0 0 0 0 0 0 0 0
0 0 0 0 0 0 0 0 0 0 0 0 0 0 0 0 0 0 0 0 0 0 0 0 0 0 0 0 0 0 0 0 0 0 0 0 0 0 0 0 0 0 0
0 0 0 0 0 0 0 0 0 0 0 0 0 0 0 0 0 0 0 0 0 0 0 0 0 0 0 0 0 0 0 0 0 0 0 0 0 0 0 0 0 0 0
0 0 0 0 0 0 0 0 0 0 0 0 0 0 0 0 0 0 0 0 0 0 0 0 0 0 0 0 0 0 0 0 0 0 0 0 0 0 0 0 0 0 0
0 0 0 0 0 0 0 0 0 0 0 0 0 0 0 0 0 0 0 0 0 0 0 0 0 0 0 0 0 0 0 0 0 0 0 0 0 0 0 0 0 0 0
0 0 0 0 0 0 0 0 0 0 0 0 0 0 0 0 0 0 0 0 0 0 0 0 0 0 0 0 0 0 0 0 0 0 0 0 0 0 0 0 0 0 0
0 0 0 0 0 0 0 0 0 0 0 0 0 0 0 0 0 0 0 0 0 0 0 0 0 0 0 0 0 0 0 0 0 0 0 0 0 0 0 0 0 0 0
0 0 0 0 0 0 0 0 0 0 0 0 0 0 0 0 0 0 0 0 0 0 0 0 0 0 0 0 0 0 0 0 0 0 0 0 0 0 0 0 0 0 0
0 0 0 0 0 0 0 0 0 0 0 0 0 0 0 0 0 0 0 0 0 0 0 0 0 0 0 0 0 0 0 0 0 0 0 0 0 0 0 0 0 0 0
0 0 0 0 0 0 0 0 0 0 0 0 0 0 0 0 0 0 0 0 0 0 0 0 0 0 0 0 0 0 0 0 0 0 0 0 0 0 0 0 0 0 0
0 0 0 0 0 0 0 0 0 0 0 0 0 0 0 0 0 0 0 0 0 0 0 0 0 0 0 0 0 0 0 0 0 0 0 0 0 0 0 0 0 0 0
0 0 0 0 0 0 0 0 0 0 0 0 0 0 0 0 0 0 0 0 0 0 0 0 0 0 0 0 0 0 0 0 0 0 0 0 0 0 0 0 0 0 0
0 0 0 0 0 0 0 0 0 0 0 0 0 0 0 0 0 0 0 0 0 0 0 0 0 0 0 0 0 0 0 0 0 0 0 0 0 0 0 0 0 0 0
0 0 0 0 0 0 0 0 0 0 0 0 0 0 0 0 0 0 0 0 0 0 0 0 0 0 0 0 0 0 0 0 0 0 0 0 0 0 0 0 0 0 0
0 0 0 0 0 0 0 0 0 0 0 0 0 0 0 0 0 0 0 0 0 0 0 0 0 0 0 0 0 0 0 0 0 0 0 0 0 0 0 0 0 0 0
0 0 0 0 0 0 0 0 0 0 0 0 0 0 0 0 0 0 0 0 0 0 0 0 0 0 0 0 0 0 0 0 0 0 0 0 0 0 0 0 0 0 0
0 0 0 0 0 0 0 0 0 0 0 0 0 0 0 0 0 0 0 0 0 0 0 0 0 0 0 0 0 0 0 0 0 0 0 0 0 0 0 0 0 0 0
0 0 0 0 0 0 0 0 0 0 0 0 0 0 0 0 0 0 0 0 0 0 0 0 0 0 0 0 0 0 0 0 0 0 0 0 0 0 0 0 0 0 0
0 0 0 0 0 0 0 0 0 0 0 0 0 0 0 0 0 0 0 0 0 0 0 0 0 0 0 0 0 0 0 0 0 0 0 0 0 0 0 0 0 0 0
0 0 0 0 0 0 0 0 0 0 0 0 0 0 0 0 0 0 0 0 0 0 0 0 0 0 0 0 0 0 0 0 0 0 0 0 0 0 0 0 0 0 0
0 0 0 0 0 0 0 0 0 0 0 0 0 0 0 0 0 0 0 0 0 0 0 0 0 0 0 0 0 0 0 0 0 0 0 0 0 0 0 0 0 0 0
0 0 0 0 0 0 0 0 0 0 0 0 0 0 0 0 0 0 0 0 0 0 0 0 0 0 0 0 0 0 0 0 0 0 0 0 0 0 0 0 0 0 0
0 0 0 0 0 0 0 0 0 0 0 0 0 0 0 0 0 0 0 0 0 0 0 0 0 0 0 0 0 0 0 0 0 0 0 0 0 0 0 0 0 0 0
0 0 0 0 0 0 0 0 0 0 0 0 0 0 0 0 0 0 0 0 0 0 0 0 0 0 0 0 0 0 0 0 0 0 0 0 0 0 0 0 0 0 0
0 0 0 0 0 0 0 0 0 0 0 0 0 0 0 0 0 0 0 0 0 0 0 0 0 0 0 0 0 0 0 0 0 0 0 0 0 0 0 0 0 0 0
Wind_Speed
5 4 4 3 3 3 3 2 2 2 2 2 2 3 3 3 3 3 3 3 4 4 4 4 4 3 3 2 2 2 1 1 0 2 2 3 5 6 6 5 4 4 4
5 5 5 4 4 3 3 2 2 2 2 2 2 3 3 2 2 3 3 3 3 3 3 3 4 3 4 3 2 2 1 1 1 2 3 3 4 5 5 5 5 4 3
6 5 5 5 4 4 3 3 3 3 2 2 3 3 2 2 2 2 2 3 3 2 2 3 3 3 4 3 3 2 2 2 1 0 2 2 2 3 4 4 5 4 4
6 6 6 5 5 4 3 3 3 3 3 3 2 2 2 2 2 2 3 3 3 3 2 2 2 3 2 2 3 2 2 2 2 1 2 2 2 3 3 3 4 4 4
7 7 6 5 4 4 4 3 3 3 3 3 3 3 2 2 2 3 3 3 3 3 3 3 3 4 5 4 3 2 2 2 2 2 2 2 3 3 3 3 3 3 3
8 7 6 6 5 5 4 4 4 3 3 3 3 3 2 1 3 4 4 2 2 2 2 2 3 4 6 7 7 6 4 2 1 1 1 2 3 3 2 2 2 3 3
8 7 7 7 6 5 5 4 4 3 3 3 2 2 1 1 3 4 5 3 2 1 1 1 2 3 4 3 5 7 6 6 4 1 0 2 2 3 2 3 2 2 2
8 7 7 7 7 6 5 5 4 3 3 3 2 2 1 1 3 4 5 3 2 1 1 0 1 2 2 2 3 4 4 3 3 2 1 2 3 3 2 2 2 2 2
8 8 8 8 8 7 6 5 4 3 3 2 2 2 2 2 2 3 4 2 1 1 1 0 0 1 3 3 3 2 3 4 4 5 4 4 5 4 2 1 2 2 2
9 9 8 8 9 8 7 5 3 3 3 3 2 2 2 2 2 3 4 2 1 0 1 1 1 1 2 2 1 1 2 3 4 4 4 5 4 4 4 1 0 1 2
8 8 8 8 8 7 6 4 4 4 3 3 2 1 2 2 2 3 4 2 2 1 1 1 2 3 3 2 1 0 2 3 2 2 3 3 3 3 3 2 1 0 1
8 8 7 7 6 6 6 5 4 5 4 3 2 1 1 1 2 3 4 4 3 2 2 2 2 3 3 3 1 3 4 3 1 1 2 2 3 3 3 3 3 2 2
8 8 7 6 5 6 7 6 4 4 4 3 3 2 2 1 2 3 3 4 4 2 2 3 3 3 3 3 3 4 3 1 1 1 2 2 2 3 3 3 3 2 2
9 7 7 7 5 5 4 5 5 5 4 4 4 3 3 2 2 2 2 2 3 2 1 2 2 2 1 2 3 2 1 1 1 1 2 2 2 2 2 2 2 2 3
8 7 6 6 6 5 4 4 5 6 7 6 5 5 4 4 5 6 4 3 3 3 1 0 1 1 1 2 2 2 1 1 1 1 2 2 2 2 2 2 2 2 2
7 7 6 5 4 4 4 1 2 3 5 6 6 5 5 6 5 5 6 5 5 4 2 1 2 2 2 2 2 2 2 2 2 2 2 3 3 3 3 2 2 2 3
8 7 6 6 5 5 5 4 3 1 1 3 4 5 5 4 4 5 5 4 4 5 2 2 3 3 3 3 3 3 3 3 2 2 3 3 3 3 3 3 3 3 4
7 8 7 6 6 6 5 5 4 4 3 2 3 4 5 5 4 4 4 3 1 2 2 3 4 3 3 3 3 3 3 3 3 3 3 3 3 3 3 4 4 4 4
6 5 5 5 5 5 4 4 4 4 3 3 1 2 4 4 3 3 4 3 3 4 4 4 4 4 4 4 4 4 4 3 4 3 3 4 3 3 4 4 4 6 5
5 8 7 5 4 4 4 4 4 4 4 3 4 3 2 2 2 3 3 4 4 4 4 5 4 4 4 4 4 3 4 4 4 4 4 4 4 3 4 5 5 5 5
4 6 8 5 5 5 5 5 5 4 4 4 5 5 6 4 5 5 4 5 5 6 5 5 5 4 4 4 4 4 5 5 4 4 4 4 4 4 4 5 5 5 5
4 4 5 5 5 5 4 4 4 4 5 5 3 3 6 4 4 4 5 5 6 5 5 5 5 5 5 5 5 5 5 5 5 5 5 5 4 5 5 5 5 5 5
4 5 4 4 4 5 4 4 4 4 4 4 4 3 3 4 4 5 5 5 5 5 4 4 5 5 5 5 5 5 6 6 6 5 5 5 5 5 5 5 6 7 7
4 5 5 4 4 4 4 4 4 4 4 4 4 4 4 4 5 5 5 4 4 4 4 5 5 7 8 6 5 5 5 6 5 5 6 6 6 5 5 6 7 8 8
4 4 4 4 4 4 4 4 3 4 4 4 4 4 4 4 4 5 4 4 5 5 6 5 5 6 7 8 7 6 8 9 8 5 5 5 6 6 6 7 7 7 7
4 4 3 3 3 3 4 4 4 4 4 4 4 3 4 4 4 4 4 4 4 4 5 4 6 6 7 6 7 8 9 9 8 8 5 4 5 6 6 6 8 7 8
Wind_Direction
160 153 141 142 136 130 131 139 141 120 111 105 100 91 78 63 58 65 56 51 55 39 33 41 29 20 27 24 30 39 43 100 177 309 320 328 348 358 357 4 13 17 22
156 147 145 139 133 133 137 141 138 131 121 116 109 100 90 76 67 71 64 55 58 48 32 35 22 27 28 21 31 30 27 46 153 319 331 338 344 347 350 4 8 15 17
149 145 142 143 146 151 150 140 131 128 117 105 102 104 98 91 82 75 79 67 62 55 43 44 25 35 30 21 30 27 13 24 44 16 328 330 331 343 353 1 3 359 7
152 151 156 162 163 160 149 138 133 129 122 116 106 106 105 98 92 87 84 76 64 50 40 40 37 43 37 25 34 27 28 37 34 25 345 335 330 328 353 359 356 357 355
158 161 170 165 154 144 139 136 130 128 127 122 110 97 95 104 115 114 100 93 77 55 37 30 33 48 48 45 50 44 48 47 33 23 358 345 343 349 351 336 344 338 345
165 170 164 154 151 151 149 140 133 127 121 118 119 117 105 102 119 121 115 103 90 75 48 22 23 33 38 42 48 54 57 57 43 29 350 339 324 320 321 331 334 345 335
169 168 164 160 160 161 153 143 144 143 134 131 133 128 129 137 128 122 113 108 99 86 64 33 28 31 33 32 34 34 29 33 40 115 334 296 298 303 323 335 333 322 290
170 171 169 163 164 159 153 157 157 146 148 153 155 158 155 183 142 134 120 101 95 84 68 70 46 352 7 49 37 26 12 358 349 1 266 270 282 290 279 288 285 302 294
176 177 174 166 162 162 166 170 164 153 158 162 162 164 171 217 187 153 130 110 97 39 345 342 309 316 345 44 51 24 359 342 345 358 357 348 339 341 354 16 357 1 333
184 179 172 166 166 170 173 168 162 161 167 161 160 177 185 210 214 173 144 132 130 305 325 321 321 321 338 25 73 40 346 318 329 341 350 353 350 347 360 11 323 333 324
170 162 163 167 168 166 160 157 154 152 147 155 165 186 200 215 218 194 166 152 173 190 264 294 297 317 333 343 24 217 282 305 314 326 332 336 341 347 349 348 335 260 283
152 156 163 164 165 156 151 152 151 150 151 163 167 205 242 244 228 222 197 186 174 175 226 253 271 304 320 330 326 308 319 347 359 347 343 335 332 329 327 329 322 305 269
151 158 160 156 157 155 157 158 154 158 164 176 180 202 232 240 243 235 225 213 198 190 228 252 272 301 320 322 319 323 336 4 358 336 310 296 287 291 305 316 317 315 310
156 158 157 156 156 155 159 164 166 173 179 184 191 206 219 232 235 228 222 217 213 220 247 276 294 311 306 294 312 327 323 260 245 255 270 278 290 303 306 306 306 318 320
156 157 159 162 162 165 171 181 183 194 190 188 198 197 195 220 230 217 197 206 208 212 181 28 337 321 307 305 304 297 290 291 280 268 269 283 291 295 296 300 293 305 299
156 163 166 164 164 164 166 169 219 206 213 208 200 193 213 226 229 215 214 215 210 193 158 206 239 244 252 260 272 284 278 264 256 254 262 267 272 280 288 290 281 278 284
168 171 169 168 169 172 174 175 186 258 225 212 210 207 210 214 210 205 207 206 201 177 184 223 234 238 245 250 252 253 260 262 253 249 257 262 265 271 276 281 281 279 280
168 171 170 175 176 177 181 184 180 180 197 242 242 225 214 210 209 204 189 156 195 199 214 228 236 241 243 247 249 251 257 266 264 258 256 258 259 264 272 276 276 274 279
169 173 173 171 173 176 174 174 180 186 194 204 214 240 221 208 204 201 172 181 210 224 227 233 235 238 242 245 247 249 249 252 258 257 253 254 253 254 265 271 274 276 278
177 179 168 165 168 171 172 177 184 191 197 202 211 215 190 167 200 218 211 214 219 228 229 233 237 237 239 241 244 246 251 254 256 254 254 256 256 252 258 265 267 270 272
167 174 171 165 175 180 182 187 190 192 201 212 223 216 196 196 209 217 221 223 225 229 231 233 235 236 236 238 240 244 248 254 254 254 253 255 255 256 257 258 264 267 273
163 167 171 177 180 183 185 187 187 195 205 215 228 221 212 210 216 222 227 233 233 233 230 228 233 232 227 227 232 238 246 251 253 253 254 255 255 257 258 260 264 268 271
162 164 168 175 179 181 181 185 190 199 209 215 213 210 212 220 228 230 234 237 236 237 232 226 233 240 238 233 231 230 238 245 248 247 252 256 256 257 257 259 263 268 269
163 166 171 174 175 178 186 194 198 202 207 211 214 216 220 226 233 239 241 241 239 240 236 231 233 240 245 246 243 239 242 249 252 247 243 250 254 257 258 261 263 265 267
162 166 172 177 180 185 190 194 198 203 208 213 218 224 229 233 240 247 248 244 243 244 243 239 238 243 247 248 251 252 255 256 259 258 250 246 249 252 257 262 265 269 269
162 165 171 174 179 185 190 196 201 206 211 217 221 224 230 237 244 249 251 250 250 251 251 247 246 248 253 253 253 257 260 262 262 262 258 248 250 256 259 264 267 269 270